Regional Weather Roundup
Issued by NWS Wakefield, VA

Home | Current Version | Previous Version | Text Only | Print | Product List | Glossary Off
Versions: 1 2 3 4 5 6 7 8 9 10 11 12 13 14 15 16 17 18 19 20 21 22 23 24 25 26 27 28 29 30 31 32 33 34 35 36 37 38 39 40 41 42 43 44 45 46 47 48 49 50
000 ASUS41 KAKQ 020110 RWRAKQ REGIONAL WEATHER ROUNDUP NATIONAL WEATHER SERVICE WAKEFIELD VA 800 PM EST SUN MAR 01 2015 Note: "fair" indicates few or no clouds below 12,000 feet with no significant weather and/or obstructions to visibility. * = Denotes station may not report precipitation (e.g., rain,snow,etc.), thunder or fog. VAZ042-051-052>054-056-020200- NORTHERN VIRGINIA CITY SKY/WX TMP DP RH WIND PRES REMARKS WASH NATIONAL LGT RAIN 34 29 82 S6 30.31F DULLES CLOUDY 30 28 93 S5 30.27F FORT BELVOIR CLOUDY 31 29 93 CALM 30.30F QUANTICO CLOUDY 32 29 88 SW5 30.32F FREDERICKSBRG* CLOUDY 34 34 100 CALM 30.30S STAFFORD* CLOUDY 32 32 100 CALM 30.35S HAZE WARRENTON CLOUDY 32 32 100 CALM 30.28F CULPEPER* CLOUDY 34 32 93 CALM 30.27F MANASSAS* NOT AVBL LEESBURG* CLOUDY 32 32 100 S5 30.28F WINCHESTER CLOUDY 32 28 86 CALM 30.22F FRONT ROYAL* FAIR 30 28 93 CALM 30.22F LURAY* FAIR 36 34 93 CALM 30.20F $$ VAZ048-049-060>072-079>083-020200- CENTRAL AND SOUTH CENTRAL VIRGINIA CITY SKY/WX TMP DP RH WIND PRES REMARKS RICHMOND FOG 32 30 92 S6 30.31F VSB 1/2 CHESTERFIELD* CLOUDY 32 21 64 CALM 30.30F PETERSBURG* CLOUDY 33 33 99 CALM 30.34F FOG HANOVER CLOUDY 32 31 96 S7 30.31F FOG TAPPAHANNOCK* CLOUDY 33 31 92 S3 30.31F FOG QUINTON* CLOUDY 32 31 98 S5 30.32F CHARLOTTSVILLE MOCLDY 32 30 92 S9 30.25F FOG GORDONSVILLE* CLOUDY 31 31 96 S5 30.26F ORANGE* CLOUDY 32 32 100 CALM 30.28F LOUISA* CLOUDY 32 30 93 SW3 30.27F FOG BUMPASS* CLOUDY 32 31 96 CALM 30.29S FARMVILLE* MIX PCPN 34 34 100 SW6 30.31F CREWE* CLOUDY 32 32 98 S3 30.29F FORT PICKETT* CLOUDY 32 31 98 S7 30.31F CHASE CITY* CLOUDY 34 34 100 CALM 30.32F CLARKSVILLE* CLOUDY 32 32 100 CALM 30.33F SOUTH HILL* CLOUDY 32 31 97 S3 30.39F LAWRENCEVILLE* CLOUDY 32 32 100 S3 30.34S EMPORIA* CLOUDY 32 32 100 CALM 30.38R FOG $$ VAZ088>098-020200- SOUTHEAST VIRGINIA CITY SKY/WX TMP DP RH WIND PRES REMARKS NORFOLK CLOUDY 32 30 92 SE5 30.33F VIRGINIA BEACH CLOUDY 33 29 85 N6 30.35F NORFOLK NAVAL CLOUDY 34 30 85 SE3 30.35F WEST POINT* CLOUDY 34 32 91 CALM 30.35F SALUDA* CLOUDY 31 31 96 SE6 30.32F NEWPORT NEWS CLOUDY 35 31 85 CALM 30.34F LANGLEY AFB CLOUDY 32 31 94 SE2 30.34F FORT EUSTIS CLOUDY 32 32 100 CALM 30.33F WILLIAMSBURG* CLOUDY 36 34 93 CALM 30.34F HR EXEC AP* CLOUDY 32 28 86 CALM 30.36F FRANKLIN* CLOUDY 32 31 96 CALM 30.35F WAKEFIELD CLOUDY 33 30 88 CALM 30.34F $$ VAZ020-022-025-037-045-020200- WEST CENTRAL AND SOUTHWEST VIRGINIA CITY SKY/WX TMP DP RH WIND PRES REMARKS STAUNTON* PTCLDY 37 32 80 S8 30.23F WAYNESBORO* CLOUDY 36 32 87 CALM 30.22S HOT SPRINGS VA SNOW 40 40 100 W18G25 30.18F VSB<1/4 LYNCHBURG FOG 31 31 100 SW5 30.29F VSB 3/4 DANVILLE CLOUDY 34 32 92 SW3 30.33F FOG SOUTH BOSTON* CLOUDY 32 32 98 CALM 30.33F VSB 3/4 MARTINSVILLE CLOUDY 36 36 100 CALM 30.32S ROANOKE CLOUDY 35 28 75 CALM 30.30S BLACKSBURG CLOUDY 38 30 74 W3 30.29S DUBLIN* CLOUDY 41 33 74 CALM 30.27S MARION* DRIZZLE 43 42 93 W15 30.30S HILLSVILLE* PTCLDY 43 40 88 NW3 30.28R RICHLANDS* DRIZZLE 43 41 93 SW13 30.28S WISE* FOG 41 41 100 SW13 30.27F VSB 1/2 ABINGDON* DRIZZLE 44 43 95 W3 30.31S $$ MDZ021>025-VAZ099-100-020200- SOUTHERN MARYLAND AND THE DELMARVA PENINSULA CITY SKY/WX TMP DP RH WIND PRES REMARKS PATUXENT RIVER FRZ RAIN 31 29 92 S3 30.28F BAY BRIDGE APT RAIN 32 30 93 CALM 30.31S LEONARDTOWN CLOUDY 32 30 93 SW5 30.29F DOVER NOT AVBL GEORGETOWN LGT RAIN 33 32 96 S7 30.28F FOG EASTON FRZ RAIN 32 32 100 NW3 30.34S FOG CAMBRIDGE NOT AVBL SALISBURY LGT RAIN 34 31 88 SE7 30.28F FOG OCEAN CITY MIX PCPN 32 32 100 CALM 30.31F FOG WALLOPS ISLAND MIX PCPN 32 32 100 CALM 30.33S FOG ACCOMACK* CLOUDY 32 32 100 CALM 30.34S FOG $$ NCZ012>017-030>032-020200- NORTH CENTRAL AND EASTERN NORTH CAROLINA CITY SKY/WX TMP DP RH WIND PRES REMARKS ROANOKE RAPIDS CLOUDY 32 32 100 W3 30.38R RALEIGH FOG 34 32 92 CALM 30.36F VSB 1/2 ELIZABETH CITY LGT RAIN 36 35 96 NW6 30.36S AHOSKIE* LGT RAIN 32 32 99 CALM 30.37R EDENTON* LGT RAIN 35 34 96 CALM 30.36F CURRITUCK* MIX PCPN 35 33 94 NW3 30.36S KILL DEVIL HLS DRIZZLE 39 39 100 W5 30.33R MANTEO CLOUDY 39 37 93 NW9 30.35R CAPE HATTERAS CLOUDY 52 51 97 SW7 30.33S TARBORO* LGT SNOW 35 33 96 W5 30.39R GOLDSBORO CLOUDY 37 37 100 CALM 30.37R WASHINGTON CLOUDY 36 34 95 NW3 30.38S GREENVILLE DRIZZLE 36 34 93 CALM 30.37F NEW BERN CLOUDY 41 39 93 NW7 30.38S WILMINGTON LGT RAIN 45 43 93 N3 30.38R $$ VAZ048-020200- ELSEWHERE CITY SKY/WX TMP DP RH WIND PRES REMARKS HARRISBURG PA FRZ DRZL 28 25 88 CALM 30.25F FOG BALTIMORE CLOUDY 32 30 92 CALM 30.29F ANNAPOLIS CLOUDY 30 28 92 MISG 30.29F ANDREWS AFB CLOUDY 32 31 96 CALM 30.28F PHILADELPHIA FRZ RAIN 31 28 89 SW5 30.30F FOG HENDERSON NC CLOUDY 32 32 97 CALM 30.34F FOG GREENSBORO CLOUDY 36 34 92 S7 30.31F FOG ROCKY MOUNT LGT RAIN 35 34 96 W5 30.39R FOG $$ VAZ100-020200- MARINE STATION/POSITION TIME TEMP WIND PRES WAVE SWELL AIR SEA DIR/SP/G HT/PER HT/PER (UTC) (F) (DEG/KT/KT) (MB) (FT/S) (FT/S) BRANDYWINE LGT 0100 31 29 CALM 1026.0R CAPE MAY NJ 0100 32 33 CALM 1025.2R LEWES DE 0100 34 30 CALM 1024.8F 15NM E FENWICK I 0100 32 34 1026.4F 2/ 9 OCEAN-CITY-INLET 0100 32 32 CALM 1026.4S WACHAPREAGUE VA 0100 32 33 CALM / 2 1027.4F THOMAS POINT MD 0000 29 31 CALM 1027.7F COVE POINT MD 0100 29 CALM 1025.3S SOLOMONS ISLAND 0100 32 N/A BISHOPS HEAD MD 0100 31 31 CALM 1025.6F CAMBRIDGE MD 0100 32 32 CALM 1024.4F LEWISETTA VA 0100 32 33 1025.6F RAPPAHANNOCK LGT 0100 CALM / 1 1028.2F STINGRAY PT 0100 30 32 140/ 2/ 2 N/A 0 YORK RVR RNG VA 0100 32 CALM 1026.7F YORKTOWN VA 0100 32 33 200/ 1/ 3 1027.3R DOMINION TERM VA 0100 32 140/ 4/ 4 1027.3F KIPTOPEKE VA 0100 37 60/ 2/ 3 N/A CHES BAY BRIDGE 0100 31 33 340/ 2/ 3 1027.5F CAPE HENRY VA 0100 30 330/ 4/ 5 1026.6F CHESAPEAKE LGHT 0000 33 310/ 13/ 14 1029.3R WILLOUBY STN VA 0100 32 150/ 5/ 5 1027.5F S CRANEY ISL VA 0100 360/ 2/ 3 1028.0F CAPE HENRY BUOY 0100 35 N/A 3/ 6 1ST LANDING BUOY 0100 31 32 1026.9F 2/ 3 OFFSHORE WE BUOY 0100 37 N/A 4/ 6 3/ 6 64NM E OF VA BCH 0100 60 60 200/ 16/ 19 1025.2F 5/ 5 2/ 9 DUCK PIER NC 0100 35 34 350/ 9/ 12 1026.3F 44100 DUCK FRF 0000 36 N/A 4/ 5 44056 DUCK FRF 0000 N/A 3/ 5 OREGON INLET NC 0100 47 40 270/ 7/ 11 1027.1R HATTERAS NC 0100 54 41 190/ 4/ 8 1027.1F CAPE LOOKOUT NC 0000 60 240/ 8/ 10 1027.0F $$

USA.gov is the U.S. government's official web portal to all federal, state and local government web resources and services.